When you browse on this site, cookies collect data to enhance your experience and personalize the content and advertising you see.
Visit our Privacy Policy to learn more. By continuing to use the site, you agree to this use of cookies and data.
  • In Romania
  • List of Countries
  • For 7 days
  • Water Temperature
  • Weather Map
  • Weather Widgets
  • user-avatar
    Login

    Hourly Weather Brasília

    Today, 23 February, Sunday

    Time Temperature Precipitation Wind Pressure Humidity
    00:00 +20°C° 0.4 mm 0 mps 666 mmHg 86%
    01:00 +20°C° 0.1 mm 0 mps 666 mmHg 86%
    02:00 +20°C° 0.1 mm 0 mps 665 mmHg 87%
    03:00 +20°C° 0.1 mm 0 mps 665 mmHg 88%
    04:00 +19°C° 0.1 mm 0 mps 665 mmHg 87%
    05:00 +19°C° 0.1 mm 0 mps 665 mmHg 87%
    06:00 +19°C° 0.1 mm 0 mps 665 mmHg 86%
    07:00 +20°C° 0 mm 0 mps 666 mmHg 84%
    08:00 +21°C° 0 mm 0 mps 667 mmHg 82%
    09:00 +22°C° 0 mm 0 mps 667 mmHg 79%
    10:00 +24°C° 0.1 mm 0 mps 667 mmHg 73%
    11:00 +26°C° 0.1 mm 0 mps 667 mmHg 66%
    12:00 +30°C° 0.1 mm 1 mps 668 mmHg 60%
    13:00 +29°C° 1.9 mm 1 mps 667 mmHg 63%
    14:00 +29°C° 1.9 mm 1 mps 666 mmHg 66%
    15:00 +28°C° 1.9 mm 1 mps 665 mmHg 69%
    16:00 +27°C° 2.4 mm 1 mps 665 mmHg 74%
    17:00 +26°C° 2.4 mm 1 mps 664 mmHg 78%
    18:00 +25°C° 2.4 mm 1 mps 664 mmHg 83%
    19:00 +24°C° 2.5 mm 1 mps 664 mmHg 85%
    20:00 +23°C° 2.5 mm 1 mps 664 mmHg 88%
    21:00 +22°C° 2.5 mm 1 mps 664 mmHg 90%
    22:00 +22°C° 0.6 mm 1 mps 665 mmHg 89%
    23:00 +22°C° 0.6 mm 1 mps 665 mmHg 88%

    Tomorrow, 24 February, Monday

    Time Temperature Precipitation Wind Pressure Humidity
    00:00 +22°C° 0.6 mm 1 mps 665 mmHg 87%
    01:00 +20°C° 0.3 mm 0 mps 665 mmHg 87%
    02:00 +20°C° 0.3 mm 0 mps 664 mmHg 88%
    03:00 +20°C° 0.3 mm 0 mps 664 mmHg 88%
    04:00 +20°C° 0.7 mm 0 mps 664 mmHg 89%
    05:00 +19°C° 0.7 mm 0 mps 664 mmHg 90%
    06:00 +21°C° 0.7 mm 1 mps 665 mmHg 90%
    07:00 +22°C° 0.6 mm 1 mps 665 mmHg 87%
    08:00 +22°C° 0.6 mm 0 mps 666 mmHg 83%
    09:00 +23°C° 0.6 mm 0 mps 667 mmHg 80%
    10:00 +26°C° 1.3 mm 1 mps 667 mmHg 77%
    11:00 +27°C° 1.3 mm 1 mps 667 mmHg 75%
    12:00 +28°C° 1.3 mm 1 mps 667 mmHg 72%
    13:00 +28°C° 2.1 mm 1 mps 666 mmHg 73%
    14:00 +27°C° 2.1 mm 1 mps 665 mmHg 74%
    15:00 +27°C° 2.1 mm 2 mps 665 mmHg 76%
    16:00 +26°C° 1.8 mm 1 mps 664 mmHg 79%
    17:00 +26°C° 1.8 mm 1 mps 664 mmHg 82%
    18:00 +25°C° 1.8 mm 1 mps 664 mmHg 85%
    19:00 +24°C° 1.6 mm 1 mps 664 mmHg 87%
    20:00 +23°C° 1.6 mm 1 mps 664 mmHg 89%
    21:00 +22°C° 1.6 mm 1 mps 665 mmHg 90%
    22:00 +22°C° 1.5 mm 1 mps 665 mmHg 92%
    23:00 +21°C° 1.5 mm 2 mps 665 mmHg 93%

    Day after tomorrow, 25 February, Tuesday

    Time Temperature Precipitation Wind Pressure Humidity
    00:00 +21°C° 1.5 mm 2 mps 665 mmHg 94%
    01:00 +20°C° 1.1 mm 2 mps 665 mmHg 94%
    02:00 +21°C° 1.1 mm 1 mps 665 mmHg 94%
    03:00 +21°C° 1.1 mm 1 mps 664 mmHg 95%
    04:00 +21°C° 2 mm 1 mps 665 mmHg 95%
    05:00 +21°C° 2 mm 1 mps 665 mmHg 96%
    06:00 +21°C° 2 mm 1 mps 665 mmHg 96%
    07:00 +21°C° 2.7 mm 1 mps 665 mmHg 96%
    08:00 +20°C° 2.7 mm 2 mps 666 mmHg 95%
    09:00 +20°C° 2.7 mm 2 mps 666 mmHg 94%
    10:00 +22°C° 0.7 mm 1 mps 666 mmHg 94%
    11:00 +22°C° 0.7 mm 1 mps 666 mmHg 93%
    12:00 +22°C° 0.7 mm 1 mps 666 mmHg 93%
    13:00 +22°C° 0.1 mm 1 mps 666 mmHg 91%
    14:00 +23°C° 0.1 mm 1 mps 665 mmHg 88%
    15:00 +22°C° 0.1 mm 0 mps 665 mmHg 86%
    16:00 +21°C° 0.2 mm 0 mps 664 mmHg 87%
    17:00 +21°C° 0.2 mm 0 mps 664 mmHg 88%
    18:00 +23°C° 0.2 mm 1 mps 664 mmHg 90%
    19:00 +22°C° 0.4 mm 1 mps 664 mmHg 91%
    20:00 +22°C° 0.4 mm 1 mps 664 mmHg 93%
    21:00 +21°C° 0.4 mm 1 mps 664 mmHg 95%
    22:00 +21°C° 0 mm 1 mps 664 mmHg 95%
    23:00 +21°C° 0 mm 1 mps 664 mmHg 95%

    26 February, Wednesday

    Time Temperature Precipitation Wind Pressure Humidity
    00:00 +21°C° 0 mm 1 mps 664 mmHg 95%
    01:00 +21°C° 0.2 mm 1 mps 664 mmHg 95%
    02:00 +21°C° 0.2 mm 1 mps 664 mmHg 94%
    03:00 +21°C° 0.2 mm 1 mps 664 mmHg 94%
    04:00 +21°C° 0.2 mm 1 mps 664 mmHg 94%
    05:00 +20°C° 0.2 mm 1 mps 664 mmHg 94%
    06:00 +20°C° 0.2 mm 1 mps 664 mmHg 94%
    07:00 +21°C° 0.2 mm 1 mps 664 mmHg 92%
    08:00 +22°C° 0.2 mm 1 mps 665 mmHg 89%
    09:00 +23°C° 0.2 mm 2 mps 666 mmHg 87%
    10:00 +24°C° 0.7 mm 2 mps 665 mmHg 83%
    11:00 +26°C° 0.7 mm 3 mps 665 mmHg 78%
    12:00 +27°C° 0.7 mm 3 mps 665 mmHg 74%
    13:00 +27°C° 1.1 mm 3 mps 665 mmHg 74%
    14:00 +27°C° 1.1 mm 3 mps 664 mmHg 75%
    15:00 +27°C° 1.1 mm 3 mps 664 mmHg 76%
    16:00 +26°C° 1 mm 3 mps 663 mmHg 79%
    17:00 +25°C° 1 mm 2 mps 663 mmHg 83%
    18:00 +24°C° 1 mm 2 mps 662 mmHg 87%
    19:00 +24°C° 1.7 mm 2 mps 663 mmHg 88%
    20:00 +23°C° 1.7 mm 2 mps 663 mmHg 89%
    21:00 +22°C° 1.7 mm 1 mps 664 mmHg 90%
    22:00 +22°C° 1.1 mm 1 mps 664 mmHg 90%
    23:00 +22°C° 1.1 mm 1 mps 664 mmHg 91%

    27 February, Thursday

    Time Temperature Precipitation Wind Pressure Humidity
    00:00 +22°C° 1.1 mm 1 mps 664 mmHg 91%
    01:00 +21°C° 0.4 mm 1 mps 664 mmHg 91%
    02:00 +21°C° 0.4 mm 1 mps 663 mmHg 92%
    03:00 +21°C° 0.4 mm 1 mps 663 mmHg 92%
    04:00 +21°C° 0.1 mm 1 mps 663 mmHg 92%
    05:00 +21°C° 0.1 mm 1 mps 663 mmHg 91%
    06:00 +21°C° 0.1 mm 1 mps 663 mmHg 91%
    07:00 +22°C° 0.2 mm 1 mps 664 mmHg 90%
    08:00 +22°C° 0.2 mm 1 mps 664 mmHg 89%
    09:00 +23°C° 0.2 mm 1 mps 665 mmHg 89%
    10:00 +24°C° 1.3 mm 2 mps 665 mmHg 88%
    11:00 +24°C° 1.3 mm 2 mps 665 mmHg 87%
    12:00 +25°C° 1.3 mm 3 mps 665 mmHg 86%
    13:00 +25°C° 1.5 mm 3 mps 664 mmHg 85%
    14:00 +25°C° 1.5 mm 3 mps 664 mmHg 84%
    15:00 +26°C° 1.5 mm 3 mps 663 mmHg 83%
    16:00 +25°C° 1 mm 3 mps 663 mmHg 85%
    17:00 +25°C° 1 mm 3 mps 662 mmHg 88%
    18:00 +24°C° 1 mm 2 mps 662 mmHg 90%
    19:00 +23°C° 1.2 mm 2 mps 662 mmHg 91%
    20:00 +23°C° 1.2 mm 2 mps 663 mmHg 93%
    21:00 +22°C° 1.2 mm 1 mps 663 mmHg 94%
    22:00 +22°C° 0.2 mm 1 mps 664 mmHg 94%
    23:00 +22°C° 0.2 mm 1 mps 664 mmHg 93%

    28 February, Friday

    Time Temperature Precipitation Wind Pressure Humidity
    00:00 +21°C° 0.2 mm 1 mps 664 mmHg 93%
    01:00 +21°C° 0.4 mm 1 mps 664 mmHg 93%
    02:00 +21°C° 0.4 mm 1 mps 663 mmHg 93%
    03:00 +21°C° 0.4 mm 1 mps 663 mmHg 93%
    04:00 +21°C° 0.2 mm 1 mps 663 mmHg 92%
    05:00 +21°C° 0.2 mm 1 mps 664 mmHg 92%
    06:00 +19°C° 0.2 mm 0 mps 664 mmHg 91%
    07:00 +22°C° 0.5 mm 1 mps 665 mmHg 89%
    08:00 +23°C° 0.5 mm 1 mps 665 mmHg 87%
    09:00 +24°C° 0.5 mm 2 mps 666 mmHg 85%
    10:00 +25°C° 1.2 mm 2 mps 666 mmHg 84%
    11:00 +25°C° 1.2 mm 2 mps 666 mmHg 83%
    12:00 +26°C° 1.2 mm 2 mps 666 mmHg 82%
    13:00 +26°C° 1.5 mm 2 mps 665 mmHg 81%
    14:00 +26°C° 1.5 mm 2 mps 665 mmHg 80%
    15:00 +27°C° 1.5 mm 2 mps 664 mmHg 79%
    16:00 +26°C° 2.3 mm 2 mps 664 mmHg 83%
    17:00 +25°C° 2.3 mm 2 mps 664 mmHg 86%
    18:00 +24°C° 2.3 mm 2 mps 664 mmHg 90%
    19:00 +23°C° 2.8 mm 1 mps 664 mmHg 92%
    20:00 +22°C° 2.8 mm 1 mps 664 mmHg 94%
    21:00 +22°C° 2.8 mm 1 mps 665 mmHg 96%
    22:00 +21°C° 2.6 mm 1 mps 665 mmHg 96%
    23:00 +21°C° 2.6 mm 1 mps 665 mmHg 96%
    Show more